DECKE EDLW-EDDS

Flight info

Callsign DECKE
Flight time N/A
Altitude 7000
Route GMH8Q GMH Z841 BIGSU L603 BOMBI N850 RINEX Z818 ETASA DCT NOSBU T726 LBU
Aircraft DA42/L-SBDGRY/S

Departure

Time 2026-05-06 18:51
Airport Dortmund Airport (EDLW)

Arrival

Time N/A
Airport Stuttgart Airport (EDDS)
Time Latitude Longitude Altitude Speed Heading
2026-05-06 18:28 51.51236 7.60523 443 ft 0 kts 104°
2026-05-06 18:43 51.51239 7.60529 434 ft 3 kts 353°
2026-05-06 18:43 51.51248 7.60446 443 ft 17 kts 237°
2026-05-06 18:43 51.51190 7.60289 443 ft 17 kts 234°
2026-05-06 18:43 51.51174 7.60159 441 ft 12 kts 352°
2026-05-06 18:44 51.51249 7.60312 433 ft 24 kts 59°
2026-05-06 18:44 51.51342 7.60576 441 ft 27 kts 59°
2026-05-06 18:44 51.51443 7.60861 422 ft 27 kts 61°
2026-05-06 18:44 51.51485 7.60984 422 ft 9 kts 58°
2026-05-06 18:45 51.51564 7.61043 424 ft 13 kts 323°
2026-05-06 18:45 51.51553 7.60860 416 ft 20 kts 254°
2026-05-06 18:45 51.51528 7.60713 411 ft 0 kts 261°
2026-05-06 18:48 51.51528 7.60682 410 ft 0 kts 280°
2026-05-06 18:49 51.51531 7.60666 409 ft 9 kts 292°
2026-05-06 18:50 51.51613 7.60611 409 ft 9 kts 25°
2026-05-06 18:50 51.51626 7.60633 409 ft 0 kts 58°
2026-05-06 18:51 51.51686 7.60804 412 ft 49 kts 55°
2026-05-06 18:51 51.51933 7.61519 472 ft 89 kts 56°
2026-05-06 18:51 51.52265 7.62371 817 ft 89 kts 51°
2026-05-06 18:51 51.52563 7.63229 1223 ft 89 kts 57°
2026-05-06 18:52 51.52847 7.64096 1641 ft 87 kts 57°
2026-05-06 18:52 51.53129 7.64930 2005 ft 84 kts 57°
2026-05-06 18:52 51.53411 7.65753 2366 ft 84 kts 57°
2026-05-06 18:52 51.53715 7.66627 2580 ft 99 kts 57°
2026-05-06 18:53 51.54060 7.67613 2903 ft 101 kts 58°
2026-05-06 18:53 51.54406 7.68592 3256 ft 101 kts 57°
2026-05-06 18:53 51.54754 7.69574 3568 ft 102 kts 57°
2026-05-06 18:53 51.55109 7.70572 3898 ft 103 kts 56°
2026-05-06 18:54 51.55465 7.71573 4229 ft 104 kts 56°
2026-05-06 18:54 51.55817 7.72583 4588 ft 105 kts 62°
2026-05-06 18:54 51.55884 7.73773 4892 ft 113 kts 100°
2026-05-06 18:54 51.55442 7.74839 5206 ft 119 kts 134°
2026-05-06 18:55 51.54810 7.75718 5531 ft 121 kts 139°
2026-05-06 18:55 51.54161 7.76598 5846 ft 123 kts 140°
2026-05-06 18:55 51.53510 7.77487 6212 ft 122 kts 141°
2026-05-06 18:55 51.52866 7.78367 6529 ft 123 kts 141°
2026-05-06 18:56 51.52153 7.79118 6854 ft 123 kts 165°
2026-05-06 18:56 51.51317 7.79142 7161 ft 121 kts 201°
2026-05-06 18:56 51.50526 7.78702 7478 ft 121 kts 204°
2026-05-06 18:56 51.49732 7.78234 7787 ft 122 kts 204°
2026-05-06 18:57 51.48937 7.77766 8104 ft 123 kts 203°
2026-05-06 18:57 51.48113 7.77281 8361 ft 129 kts 203°
2026-05-06 18:57 51.47257 7.76779 8625 ft 133 kts 204°
2026-05-06 18:57 51.46372 7.76261 8864 ft 140 kts 203°
2026-05-06 18:58 51.45395 7.75686 8865 ft 158 kts 202°
2026-05-06 18:58 51.44325 7.75062 8867 ft 169 kts 202°
2026-05-06 18:58 51.43144 7.74734 8859 ft 178 kts 179°
2026-05-06 18:58 51.41926 7.75206 8861 ft 182 kts 162°
2026-05-06 18:59 51.40722 7.75888 8860 ft 185 kts 161°
2026-05-06 18:59 51.39511 7.76585 8860 ft 185 kts 161°
2026-05-06 18:59 51.38298 7.77276 8863 ft 185 kts 161°
2026-05-06 18:59 51.37084 7.77960 8863 ft 185 kts 161°
2026-05-06 19:00 51.35873 7.78637 8877 ft 184 kts 162°
2026-05-06 19:00 51.34651 7.79314 8856 ft 186 kts 161°
2026-05-06 19:00 51.33445 7.80018 8862 ft 184 kts 161°
2026-05-06 19:00 51.32234 7.80703 8873 ft 184 kts 162°
2026-05-06 19:01 51.31030 7.81377 8873 ft 184 kts 161°
2026-05-06 19:01 51.29822 7.82046 8865 ft 184 kts 161°
2026-05-06 19:01 51.28619 7.82724 8872 ft 183 kts 161°
2026-05-06 19:01 51.27414 7.83394 8870 ft 184 kts 161°
2026-05-06 19:02 51.26212 7.84078 8859 ft 183 kts 161°
2026-05-06 19:02 51.25011 7.84753 8860 ft 183 kts 161°
2026-05-06 19:02 51.23805 7.85421 8852 ft 184 kts 162°
2026-05-06 19:02 51.22606 7.86110 8861 ft 183 kts 161°
2026-05-06 19:03 51.21404 7.86776 8854 ft 182 kts 161°
2026-05-06 19:03 51.20208 7.87418 8855 ft 181 kts 161°
2026-05-06 19:03 51.19041 7.88060 8872 ft 179 kts 161°
2026-05-06 19:03 51.17852 7.88759 8864 ft 180 kts 161°
2026-05-06 19:04 51.16740 7.89597 8860 ft 181 kts 144°
2026-05-06 19:04 51.15731 7.90784 8865 ft 180 kts 143°
2026-05-06 19:04 51.14734 7.91986 8864 ft 180 kts 143°
2026-05-06 19:04 51.13733 7.93189 8863 ft 180 kts 143°
2026-05-06 19:05 51.12737 7.94386 8862 ft 180 kts 143°
2026-05-06 19:05 51.11734 7.95589 8859 ft 179 kts 143°
2026-05-06 19:05 51.10740 7.96783 8860 ft 179 kts 143°
2026-05-06 19:05 51.09749 7.97976 8854 ft 179 kts 143°
2026-05-06 19:06 51.08760 7.99166 8856 ft 178 kts 143°
2026-05-06 19:06 51.07774 8.00349 8857 ft 178 kts 143°
2026-05-06 19:06 51.06782 8.01530 8858 ft 178 kts 143°
2026-05-06 19:06 51.05792 8.02704 8849 ft 178 kts 143°
2026-05-06 19:07 51.04810 8.03895 8845 ft 178 kts 144°
2026-05-06 19:07 51.04158 8.04680 8842 ft 177 kts 144°
2026-05-06 19:07 51.02846 8.06249 8847 ft 175 kts 147°
2026-05-06 19:07 51.01881 8.07401 8847 ft 172 kts 147°
2026-05-06 19:08 51.00920 8.08547 8851 ft 174 kts 147°
2026-05-06 19:08 50.99947 8.09710 8851 ft 176 kts 147°
2026-05-06 19:08 50.98969 8.10876 8848 ft 177 kts 147°
2026-05-06 19:08 50.97976 8.12059 8845 ft 178 kts 147°
2026-05-06 19:09 50.96983 8.13243 8838 ft 179 kts 147°
2026-05-06 19:09 50.95986 8.14432 8841 ft 179 kts 147°
2026-05-06 19:09 50.94988 8.15622 8839 ft 180 kts 147°
2026-05-06 19:09 50.93985 8.16814 8840 ft 180 kts 147°
2026-05-06 19:10 50.92983 8.18006 8848 ft 180 kts 147°
2026-05-06 19:10 50.91977 8.19203 8843 ft 181 kts 147°
2026-05-06 19:10 50.90973 8.20398 8845 ft 181 kts 147°
2026-05-06 19:10 50.89964 8.21595 8844 ft 181 kts 147°
2026-05-06 19:11 50.88957 8.22790 8844 ft 181 kts 147°
2026-05-06 19:11 50.87950 8.23985 8843 ft 181 kts 147°
2026-05-06 19:11 50.86941 8.25181 8839 ft 181 kts 147°
2026-05-06 19:11 50.85935 8.26375 8841 ft 181 kts 147°
2026-05-06 19:12 50.84926 8.27569 8841 ft 181 kts 147°
2026-05-06 19:12 50.83858 8.28588 8836 ft 177 kts 155°
2026-05-06 19:12 50.82776 8.29485 8851 ft 175 kts 155°
2026-05-06 19:12 50.81701 8.30427 8829 ft 176 kts 154°
2026-05-06 19:13 50.80628 8.31355 8831 ft 177 kts 155°
2026-05-06 19:13 50.79542 8.32274 8829 ft 177 kts 155°
2026-05-06 19:13 50.78453 8.33197 8831 ft 178 kts 155°
2026-05-06 19:13 50.77365 8.34121 8830 ft 178 kts 155°
2026-05-06 19:14 50.76277 8.35047 8828 ft 177 kts 155°
2026-05-06 19:14 50.75190 8.35974 8831 ft 177 kts 155°
2026-05-06 19:14 50.74101 8.36898 8828 ft 178 kts 155°
2026-05-06 19:14 50.73007 8.37827 8829 ft 179 kts 155°
2026-05-06 19:15 50.71912 8.38756 8828 ft 179 kts 155°
2026-05-06 19:15 50.70817 8.39686 8830 ft 179 kts 155°
2026-05-06 19:15 50.69722 8.40614 8829 ft 179 kts 155°
2026-05-06 19:15 50.68626 8.41545 8827 ft 179 kts 155°
2026-05-06 19:16 50.67533 8.42472 8817 ft 179 kts 156°
2026-05-06 19:16 50.66436 8.43400 8824 ft 179 kts 156°
2026-05-06 19:16 50.65337 8.44330 8817 ft 180 kts 156°
2026-05-06 19:16 50.64234 8.45264 8815 ft 180 kts 156°
2026-05-06 19:17 50.63145 8.46185 8818 ft 180 kts 156°
2026-05-06 19:17 50.62039 8.47120 8818 ft 181 kts 156°
2026-05-06 19:17 50.60929 8.48057 8819 ft 181 kts 156°
2026-05-06 19:17 50.59820 8.48994 8816 ft 181 kts 156°
2026-05-06 19:18 50.58740 8.49905 8819 ft 180 kts 156°
2026-05-06 19:18 50.57635 8.50836 8821 ft 181 kts 156°
2026-05-06 19:18 50.56528 8.51771 8817 ft 181 kts 156°
2026-05-06 19:18 50.55419 8.52705 8818 ft 181 kts 156°
2026-05-06 19:19 50.54310 8.53638 8817 ft 181 kts 156°
2026-05-06 19:19 50.53201 8.54571 8816 ft 181 kts 156°
2026-05-06 19:19 50.52453 8.55201 8817 ft 181 kts 156°
2026-05-06 19:19 50.50984 8.56436 8811 ft 181 kts 156°
2026-05-06 19:20 50.50235 8.57065 8811 ft 181 kts 156°
2026-05-06 19:20 50.49129 8.57995 8813 ft 180 kts 156°
2026-05-06 19:20 50.48023 8.58919 8811 ft 179 kts 158°
2026-05-06 19:20 50.46836 8.59305 8825 ft 173 kts 181°
2026-05-06 19:21 50.45628 8.59345 8829 ft 173 kts 182°
2026-05-06 19:21 50.44439 8.59415 8829 ft 174 kts 180°
2026-05-06 19:21 50.43229 8.59559 8829 ft 174 kts 179°
2026-05-06 19:21 50.42020 8.59727 8830 ft 174 kts 179°
2026-05-06 19:22 50.40812 8.59896 8831 ft 175 kts 179°
2026-05-06 19:22 50.39596 8.60065 8827 ft 176 kts 179°
2026-05-06 19:22 50.38378 8.60232 8831 ft 175 kts 179°
2026-05-06 19:22 50.37165 8.60398 8833 ft 174 kts 179°
2026-05-06 19:23 50.35957 8.60563 8826 ft 175 kts 179°
2026-05-06 19:23 50.34749 8.60732 8827 ft 174 kts 178°
2026-05-06 19:23 50.33559 8.60987 8838 ft 171 kts 178°
2026-05-06 19:23 50.32360 8.61110 8814 ft 173 kts 181°
2026-05-06 19:24 50.31151 8.61229 8817 ft 175 kts 180°
2026-05-06 19:24 50.29935 8.61385 8818 ft 175 kts 179°
2026-05-06 19:24 50.28718 8.61554 8818 ft 176 kts 179°
2026-05-06 19:24 50.27501 8.61724 8821 ft 176 kts 179°
2026-05-06 19:25 50.26283 8.61890 8822 ft 176 kts 179°
2026-05-06 19:25 50.25063 8.62056 8821 ft 176 kts 179°
2026-05-06 19:25 50.23841 8.62224 8823 ft 176 kts 179°
2026-05-06 19:25 50.22618 8.62390 8819 ft 176 kts 179°
2026-05-06 19:26 50.21401 8.62555 8846 ft 176 kts 179°
2026-05-06 19:26 50.20186 8.62724 8847 ft 176 kts 179°
2026-05-06 19:26 50.18967 8.62891 8850 ft 176 kts 179°
2026-05-06 19:26 50.17745 8.63057 8850 ft 175 kts 179°
2026-05-06 19:27 50.16530 8.63222 8854 ft 175 kts 179°
2026-05-06 19:27 50.15313 8.63388 8855 ft 176 kts 179°
2026-05-06 19:27 50.14110 8.63551 8857 ft 176 kts 179°
2026-05-06 19:27 50.12876 8.63718 8858 ft 176 kts 179°
2026-05-06 19:28 50.11657 8.63884 8859 ft 176 kts 179°
2026-05-06 19:28 50.10441 8.64049 8860 ft 176 kts 179°
2026-05-06 19:28 50.09220 8.64215 8854 ft 176 kts 179°
2026-05-06 19:28 50.07996 8.64381 8854 ft 177 kts 179°
2026-05-06 19:29 50.06786 8.64545 8858 ft 176 kts 179°
2026-05-06 19:29 50.05565 8.64711 8854 ft 176 kts 179°
2026-05-06 19:29 50.04343 8.64877 8855 ft 177 kts 179°
2026-05-06 19:29 50.03129 8.65041 8710 ft 176 kts 178°
2026-05-06 19:30 50.01926 8.65205 8837 ft 172 kts 176°
2026-05-06 19:30 50.00736 8.65368 9000 ft 177 kts 180°
2026-05-06 19:30 49.99488 8.65532 8871 ft 183 kts 179°
2026-05-06 19:30 49.98229 8.65702 8863 ft 181 kts 179°
2026-05-06 19:31 49.96980 8.65872 8869 ft 179 kts 179°
2026-05-06 19:31 49.95739 8.66041 8866 ft 179 kts 179°
2026-05-06 19:31 49.93269 8.66374 8863 ft 178 kts 179°
2026-05-06 19:32 49.92036 8.66540 8839 ft 178 kts 179°
2026-05-06 19:32 49.90804 8.66706 8844 ft 178 kts 179°
2026-05-06 19:32 49.89573 8.66872 8842 ft 178 kts 179°
2026-05-06 19:32 49.88341 8.67038 8842 ft 178 kts 179°
2026-05-06 19:33 49.87113 8.67203 8846 ft 178 kts 179°
2026-05-06 19:33 49.85878 8.67369 8837 ft 178 kts 179°
2026-05-06 19:33 49.84641 8.67536 8840 ft 179 kts 179°
2026-05-06 19:33 49.83404 8.67702 8838 ft 179 kts 179°
2026-05-06 19:34 49.82162 8.67868 8840 ft 179 kts 179°
2026-05-06 19:34 49.80921 8.68035 8839 ft 179 kts 179°
2026-05-06 19:34 49.79686 8.68200 8839 ft 178 kts 179°
2026-05-06 19:34 49.78448 8.68369 8845 ft 179 kts 179°
2026-05-06 19:35 49.77208 8.68533 8843 ft 179 kts 179°
2026-05-06 19:35 49.75962 8.68698 8844 ft 180 kts 179°
2026-05-06 19:35 49.75138 8.68809 8843 ft 180 kts 179°
2026-05-06 19:35 49.74181 8.68939 8835 ft 179 kts 179°
2026-05-06 19:36 49.72951 8.68900 8839 ft 176 kts 189°
2026-05-06 19:36 49.71715 8.68735 8842 ft 176 kts 189°
2026-05-06 19:36 49.70506 8.68571 8843 ft 177 kts 189°
2026-05-06 19:36 49.69282 8.68405 8843 ft 177 kts 189°
2026-05-06 19:37 49.68059 8.68239 8851 ft 177 kts 189°
2026-05-06 19:37 49.66827 8.68073 8846 ft 178 kts 189°
2026-05-06 19:37 49.65599 8.67904 8848 ft 177 kts 189°
2026-05-06 19:37 49.64373 8.67741 8839 ft 177 kts 188°
2026-05-06 19:38 49.63146 8.67579 8846 ft 177 kts 188°
2026-05-06 19:38 49.61920 8.67415 8848 ft 177 kts 188°
2026-05-06 19:38 49.60690 8.67258 8847 ft 177 kts 188°
2026-05-06 19:38 49.59464 8.67092 8849 ft 177 kts 189°
2026-05-06 19:39 49.58236 8.66919 8852 ft 177 kts 189°
2026-05-06 19:39 49.57007 8.66753 8854 ft 178 kts 188°
2026-05-06 19:39 49.55773 8.66590 8851 ft 178 kts 188°
2026-05-06 19:39 49.54542 8.66427 8853 ft 178 kts 188°
2026-05-06 19:40 49.53310 8.66263 8855 ft 178 kts 188°
2026-05-06 19:40 49.52078 8.66098 8854 ft 178 kts 188°
2026-05-06 19:40 49.50848 8.65935 8854 ft 178 kts 188°
2026-05-06 19:40 49.49612 8.65771 8854 ft 178 kts 188°
2026-05-06 19:41 49.48381 8.65606 8854 ft 177 kts 188°
2026-05-06 19:41 49.47153 8.65442 8854 ft 177 kts 188°
2026-05-06 19:41 49.45923 8.65279 8854 ft 177 kts 188°
2026-05-06 19:41 49.44697 8.65116 8854 ft 177 kts 188°
2026-05-06 19:42 49.43469 8.64952 8851 ft 177 kts 188°
2026-05-06 19:42 49.42243 8.64789 8849 ft 177 kts 188°
2026-05-06 19:42 49.41019 8.64627 8851 ft 177 kts 188°
2026-05-06 19:42 49.39785 8.64463 8850 ft 178 kts 188°
2026-05-06 19:43 49.38552 8.64299 8846 ft 178 kts 188°
2026-05-06 19:43 49.37320 8.64136 8846 ft 178 kts 188°
2026-05-06 19:43 49.36083 8.63972 8846 ft 178 kts 188°
2026-05-06 19:43 49.34850 8.63814 8846 ft 178 kts 186°
2026-05-06 19:44 49.33616 8.64076 8844 ft 184 kts 162°
2026-05-06 19:44 49.32584 8.65258 8855 ft 188 kts 137°
2026-05-06 19:44 49.31704 8.66743 8854 ft 188 kts 134°
2026-05-06 19:44 49.30838 8.68254 8854 ft 189 kts 135°
2026-05-06 19:45 49.29962 8.69748 8851 ft 189 kts 135°
2026-05-06 19:45 49.29077 8.71237 8849 ft 189 kts 135°
2026-05-06 19:45 49.28192 8.72724 8847 ft 189 kts 135°
2026-05-06 19:45 49.27311 8.74204 8845 ft 188 kts 135°
2026-05-06 19:46 49.26434 8.75651 8841 ft 187 kts 141°
2026-05-06 19:46 49.25285 8.76550 8849 ft 182 kts 165°
2026-05-06 19:46 49.24071 8.77099 8848 ft 182 kts 168°
2026-05-06 19:46 49.22851 8.77614 8847 ft 182 kts 168°
2026-05-06 19:47 49.21645 8.78116 8848 ft 182 kts 168°
2026-05-06 19:47 49.20474 8.78599 8848 ft 182 kts 168°
2026-05-06 19:47 49.19236 8.79107 8851 ft 182 kts 168°
2026-05-06 19:47 49.18026 8.79609 8844 ft 183 kts 168°
2026-05-06 19:48 49.16779 8.80130 8844 ft 184 kts 168°
2026-05-06 19:48 49.15560 8.80639 8844 ft 184 kts 168°
2026-05-06 19:48 49.14325 8.81155 8844 ft 184 kts 168°
2026-05-06 19:48 49.13089 8.81669 8843 ft 184 kts 168°
2026-05-06 19:49 49.11854 8.82184 8843 ft 184 kts 168°
2026-05-06 19:49 49.10618 8.82702 8843 ft 184 kts 168°
2026-05-06 19:49 49.09382 8.83225 8846 ft 184 kts 168°
2026-05-06 19:49 49.08146 8.83749 8846 ft 184 kts 168°
2026-05-06 19:50 49.06912 8.84274 8843 ft 184 kts 168°
2026-05-06 19:50 49.05683 8.84795 8844 ft 183 kts 168°
2026-05-06 19:50 49.04465 8.85314 8846 ft 182 kts 168°
2026-05-06 19:50 49.03245 8.85834 8845 ft 182 kts 168°
2026-05-06 19:51 49.02027 8.86350 8843 ft 182 kts 168°
2026-05-06 19:51 49.00808 8.86865 8842 ft 181 kts 168°
2026-05-06 19:51 48.99597 8.87378 8848 ft 180 kts 168°
2026-05-06 19:51 48.98388 8.87891 8850 ft 179 kts 168°
2026-05-06 19:52 48.97193 8.88399 8853 ft 178 kts 168°
2026-05-06 19:52 48.96000 8.88906 8842 ft 178 kts 168°
2026-05-06 19:52 48.94814 8.89399 8848 ft 176 kts 168°
2026-05-06 19:52 48.93632 8.89890 8850 ft 176 kts 168°
2026-05-06 19:53 48.92454 8.90372 8850 ft 174 kts 169°
2026-05-06 19:53 48.91282 8.90844 8852 ft 174 kts 168°
2026-05-06 19:53 48.90111 8.91331 8849 ft 174 kts 168°
2026-05-06 19:53 48.88949 8.91809 8852 ft 173 kts 168°
2026-05-06 19:54 48.87774 8.92161 8796 ft 173 kts 179°
2026-05-06 19:54 48.86524 8.92205 8528 ft 184 kts 183°
2026-05-06 19:54 48.85218 8.92195 8268 ft 190 kts 184°
2026-05-06 19:54 48.83880 8.92177 8014 ft 194 kts 184°
2026-05-06 19:55 48.82523 8.92159 7765 ft 196 kts 184°
2026-05-06 19:55 48.81160 8.92143 7515 ft 196 kts 184°
2026-05-06 19:55 48.79793 8.92131 7259 ft 197 kts 184°
2026-05-06 19:55 48.78426 8.92118 7017 ft 194 kts 184°
2026-05-06 19:56 48.77083 8.92108 6580 ft 196 kts 183°
2026-05-06 19:56 48.75743 8.92096 6255 ft 194 kts 184°
2026-05-06 19:56 48.74400 8.92084 5932 ft 193 kts 184°
2026-05-06 19:56 48.73061 8.92094 5599 ft 193 kts 184°
2026-05-06 19:57 48.71724 8.92149 5295 ft 192 kts 184°
2026-05-06 19:57 48.70404 8.92079 5002 ft 188 kts 191°
2026-05-06 19:57 48.69112 8.91848 4697 ft 187 kts 193°
2026-05-06 19:57 48.67834 8.91586 4408 ft 185 kts 194°
2026-05-06 19:58 48.66546 8.91495 4143 ft 190 kts 175°
2026-05-06 19:58 48.65390 8.92468 4013 ft 193 kts 138°
2026-05-06 19:58 48.64747 8.94214 4020 ft 189 kts 116°
2026-05-06 19:58 48.64402 8.96034 4003 ft 167 kts 96°
2026-05-06 19:59 48.64454 8.97635 3913 ft 138 kts 86°
2026-05-06 19:59 48.64590 8.99089 3931 ft 141 kts 73°
2026-05-06 19:59 48.64905 9.00513 3920 ft 143 kts 70°
2026-05-06 19:59 48.65225 9.01918 3881 ft 141 kts 70°
2026-05-06 20:00 48.65492 9.03314 3717 ft 147 kts 74°
2026-05-06 20:00 48.65610 9.04029 3684 ft 141 kts 77°